DW1912 Weather Reports


time (UTC)temp
C
wind
direction
speed
KPH
gust
KPH
rain 1hr
cm
rain 24hr
cm
rain mn
cm
humidity
%
barometer
mb
20260507073705 7 221 4.8 9.7 0.00 0.00 0.00 73 1008.0
20260507073205 7 210 1.6 8.0 0.00 0.00 0.00 75 1007.9
20260507070705 7 208 1.6 4.8 0.00 0.00 0.00 76 1008.2
20260507070702 3 0 0.0 0.0 0.00 0.15 0.00 84 1006.0
20260507070205 7 202 1.6 4.8 0.00 0.00 0.00 77 1008.2
20260507070203 3 0 0.0 0.0 0.00 0.15 0.00 87 1006.1
20260507063705 5 61 0.0 1.6 0.00 0.00 0.00 81 1008.1
20260507063703 3 0 0.0 0.0 0.00 0.15 0.00 88 1006.0
20260507063205 5 61 0.0 3.2 0.00 0.00 0.00 81 1008.0
20260507060702 2 0 0.0 0.0 0.00 0.15 0.00 89 1005.8
20260507060205 3 44 1.6 4.8 0.00 0.00 0.00 86 1007.9
20260507060202 2 0 0.0 0.0 0.00 0.15 0.00 89 1005.7
20260507053702 2 0 0.0 0.0 0.00 0.15 0.00 89 1005.7
20260507053205 3 63 1.6 4.8 0.00 0.00 0.00 84 1007.8
20260507050704 3 65 1.6 4.8 0.00 0.00 0.00 85 1007.7
20260507050204 3 54 1.6 4.8 0.00 0.00 0.00 85 1007.7
20260507043702 2 0 0.0 0.0 0.00 0.15 0.00 87 1006.3
20260507043204 3 67 1.6 4.8 0.00 0.00 0.00 81 1008.0
20260507043202 2 0 0.0 0.0 0.00 0.15 0.00 87 1006.2
20260507040705 3 66 1.6 4.8 0.00 0.00 0.00 85 1008.1
20260507040703 3 0 0.0 0.0 0.00 0.15 0.00 86 1006.4
20260507040204 3 42 1.6 4.8 0.00 0.00 0.00 84 1008.1
20260507040202 3 0 0.0 0.0 0.00 0.15 0.00 86 1006.4
20260507033705 5 146 1.6 3.2 0.00 0.00 0.00 81 1008.3
20260507033203 3 0 0.0 0.0 0.00 0.15 0.00 86 1006.7
20260507030704 5 146 0.0 3.2 0.00 0.00 0.00 82 1008.4
20260507030204 5 87 1.6 8.0 0.00 0.00 0.00 83 1008.4
20260507030202 2 0 0.0 0.0 0.00 0.15 0.00 89 1006.8
20260507023704 5 80 3.2 4.8 0.00 0.00 0.00 83 1008.5
20260507023204 5 75 3.2 4.8 0.00 0.00 0.00 83 1008.5
20260507023202 2 0 0.0 0.0 0.00 0.15 0.00 89 1006.7
20260507020704 4 78 3.2 4.8 0.00 0.00 0.00 84 1008.8
20260507020204 5 68 3.2 8.0 0.00 0.00 0.00 83 1008.8
20260507013704 5 70 3.2 8.0 0.00 0.00 0.00 83 1009.1
20260507013204 4 74 3.2 9.7 0.00 0.00 0.00 83 1009.1
20260507010704 4 82 4.8 8.0 0.00 0.00 0.00 83 1009.4
20260507010204 4 83 3.2 9.7 0.00 0.00 0.00 82 1009.5
20260507010202 2 0 0.0 0.0 0.00 0.15 0.00 89 1007.6
20260507003704 4 80 4.8 9.7 0.00 0.00 0.00 83 1009.6
20260507003702 2 0 0.0 0.0 0.00 0.15 0.00 89 1007.7
20260507003204 5 82 4.8 9.7 0.00 0.00 0.00 82 1009.7
20260507000703 2 0 0.0 0.0 0.00 0.15 0.00 89 1007.9
20260507000205 5 92 3.2 9.7 0.00 0.00 0.00 82 1009.8
20260506233705 5 85 3.2 8.0 0.00 0.00 0.00 81 1010.0
20260506233205 5 87 3.2 8.0 0.00 0.00 0.00 81 1010.0
20260506233203 2 0 0.0 0.0 0.00 0.15 0.00 88 1008.2
20260506230703 2 0 0.0 0.0 0.00 0.15 0.00 87 1008.3
20260506230205 4 89 3.2 9.7 0.00 0.00 0.00 81 1010.0
20260506230203 2 0 0.0 0.0 0.00 0.15 0.00 88 1008.3
20260506223703 2 0 0.0 0.0 0.00 0.15 0.15 88 1008.6
20260506223205 4 72 3.2 8.0 0.00 0.00 0.00 81 1010.2
20260506220705 5 75 3.2 4.8 0.00 0.00 0.00 81 1010.3
20260506220703 2 0 0.0 0.0 0.00 0.15 0.15 88 1008.7
20260506220204 5 77 3.2 8.0 0.00 0.00 0.00 81 1010.3
20260506213704 4 78 4.8 8.0 0.00 0.00 0.00 82 1010.4
20260506213203 2 0 0.0 0.0 0.00 0.15 0.15 88 1008.8
20260506210704 5 67 3.2 8.0 0.00 0.00 0.00 80 1010.2
20260506210204 2 0 0.0 0.0 0.00 0.15 0.15 88 1008.8
20260506203705 5 45 4.8 4.8 0.00 0.00 0.00 83 1010.0
20260506203204 4 47 3.2 9.7 0.00 0.00 0.00 84 1010.0
20260506200705 4 46 4.8 9.7 0.00 0.00 0.00 85 1010.0
20260506200703 2 0 0.0 0.0 0.00 0.15 0.15 92 1008.6
20260506200205 4 33 3.2 9.7 0.00 0.00 0.00 85 1009.9
20260506200203 2 0 0.0 0.0 0.00 0.15 0.15 92 1008.7
20260506193705 5 45 4.8 8.0 0.00 0.00 0.00 81 1009.8
20260506193205 5 48 4.8 9.7 0.00 0.00 0.00 82 1009.7
20260506190704 6 42 4.8 9.7 0.00 0.00 0.00 78 1009.7
20260506190203 4 0 0.0 0.0 0.03 0.15 0.15 90 1008.2
20260506183705 8 32 4.8 11.3 0.00 0.00 0.00 73 1009.6
20260506183204 5 0 0.0 0.0 0.05 0.15 0.15 89 1008.4
20260506180705 8 62 8.0 11.3 0.00 0.00 0.00 67 1009.9
20260506180703 6 0 0.0 0.0 0.05 0.15 0.15 84 1008.4
20260506180204 9 63 1.6 9.7 0.00 0.00 0.00 67 1009.9
20260506173705 9 58 4.8 9.7 0.00 0.00 0.00 67 1010.1
20260506173204 9 62 4.8 12.9 0.00 0.00 0.00 67 1010.2
20260506170704 3 0 0.0 0.0 0.05 0.08 0.08 91 1009.1
20260506170205 3 0 0.0 0.0 0.05 0.08 0.08 92 1009.1
20260506163704 3 0 0.0 0.0 0.03 0.05 0.05 91 1009.2
20260506163204 3 0 0.0 0.0 0.03 0.05 0.05 91 1009.3
20260506160704 8 67 4.8 8.0 0.00 0.00 0.00 72 1010.5
20260506160204 7 351 4.8 12.9 0.00 0.00 0.00 72 1010.6
20260506160202 4 0 0.0 0.0 0.00 0.03 0.03 86 1009.1
20260506153204 8 288 0.0 4.8 0.00 0.00 0.00 70 1010.7
20260506153202 6 0 0.0 0.0 0.00 0.03 0.03 83 1009.4
20260506150704 8 177 1.6 4.8 0.00 0.00 0.00 68 1011.0
20260506150701 4 0 0.0 0.0 0.00 0.03 0.03 89 1009.8
20260506150204 8 174 0.0 4.8 0.00 0.00 0.00 69 1011.0
20260506150201 4 0 0.0 0.0 0.00 0.03 0.03 88 1009.9
20260506143705 8 146 0.0 4.8 0.00 0.00 0.00 69 1011.4
20260506143205 8 229 1.6 4.8 0.00 0.00 0.00 70 1011.4
20260506140705 8 233 1.6 4.8 0.00 0.00 0.00 72 1012.0
20260506140702 4 0 0.0 0.0 0.00 0.03 0.03 87 1010.5
20260506140205 7 49 0.0 4.8 0.00 0.00 0.00 71 1012.1
20260506140201 3 0 0.0 0.0 0.00 0.03 0.03 87 1010.4
20260506133705 7 96 1.6 4.8 0.00 0.00 0.00 74 1012.3
20260506133702 4 0 0.0 0.0 0.00 0.03 0.03 89 1010.6
20260506133201 3 0 0.0 0.0 0.00 0.03 0.03 91 1010.6
20260506130704 7 214 4.8 11.3 0.00 0.00 0.00 73 1012.3
20260506130701 3 0 0.0 0.0 0.00 0.03 0.03 91 1010.8
20260506130205 7 174 3.2 8.0 0.00 0.00 0.00 73 1012.4
20260506130202 3 0 0.0 0.0 0.00 0.03 0.03 90 1010.8
20260506123705 7 195 1.6 4.8 0.00 0.00 0.00 76 1012.3
20260506123702 3 0 0.0 0.0 0.00 0.03 0.03 90 1010.8
20260506123205 7 230 4.8 9.7 0.00 0.00 0.00 77 1012.4
20260506120702 3 0 0.0 0.0 0.00 0.03 0.03 92 1011.1
20260506120205 7 174 3.2 11.3 0.00 0.00 0.00 71 1012.4
20260506120202 3 0 0.0 0.0 0.00 0.03 0.03 91 1011.0
20260506113704 7 205 4.8 12.9 0.00 0.00 0.00 75 1012.4
20260506113204 7 189 4.8 12.9 0.00 0.00 0.00 76 1012.4
20260506113202 6 0 0.0 0.0 0.00 0.03 0.03 80 1011.0
20260506110704 6 190 4.8 8.0 0.00 0.00 0.00 78 1012.5
20260506110702 4 0 0.0 0.0 0.00 0.03 0.03 83 1011.0
20260506110205 6 174 3.2 11.3 0.00 0.00 0.00 78 1012.5
20260506110202 4 0 0.0 0.0 0.00 0.03 0.03 81 1011.0
20260506103705 6 225 3.2 8.0 0.00 0.00 0.00 82 1012.5
20260506103702 4 0 0.0 0.0 0.00 0.03 0.03 80 1011.0
20260506103205 6 170 3.2 8.0 0.00 0.00 0.00 81 1012.5
20260506103202 4 0 0.0 0.0 0.00 0.03 0.03 83 1011.1
20260506100704 6 230 3.2 8.0 0.00 0.00 0.00 80 1012.9
20260506100702 2 0 0.0 0.0 0.00 0.03 0.03 85 1011.1
20260506100204 7 229 1.6 12.9 0.00 0.00 0.00 77 1012.9
20260506100202 3 0 0.0 0.0 0.00 0.03 0.03 86 1011.2
20260506093702 3 0 0.0 0.0 0.00 0.03 0.03 83 1011.2
20260506093204 6 59 8.0 12.9 0.00 0.00 0.00 72 1012.8
20260506090702 3 0 0.0 0.0 0.00 0.03 0.03 86 1011.0
20260506090204 5 107 4.8 11.3 0.00 0.00 0.00 76 1012.9
20260506090202 3 0 0.0 0.0 0.00 0.03 0.03 88 1011.0
20260506083704 5 74 3.2 9.7 0.00 0.00 0.00 78 1012.9
20260506083702 2 0 0.0 0.0 0.00 0.03 0.03 92 1010.9
20260506083204 5 35 1.6 12.9 0.00 0.00 0.00 80 1012.9
20260506080704 4 67 4.8 9.7 0.00 0.00 0.00 81 1012.8
20260506080702 1 0 0.0 0.0 0.00 0.03 0.03 93 1010.9
20260506080204 3 47 6.4 12.9 0.00 0.00 0.00 80 1012.8
20260506080202 1 0 0.0 0.0 0.00 0.03 0.03 92 1010.8